Regional Weather Roundup
Issued by NWS

Home | Current Version | Previous Version | Text Only | Print | Product List | Glossary On
Versions: 1 2 3 4 5 6 7 8 9 10 11 12 13 14 15 16 17 18 19 20 21 22 23 24 25 26 27 28 29 30 31 32 33 34 35 36 37 38 39 40 41 42 43 44 45 46 47 48 49 50
000
ASUS43 KMPX 292001
RWRMN
WEATHER ROUNDUP FOR MINNESOTA
NATIONAL WEATHER SERVICE TWIN CITIES/CHANHASSEN MN
300 PM CDT WED JUL 29 2015


NOTE: "FAIR" INDICATES FEW OR NO CLOUDS BELOW 12,000 FEET WITH NO
SIGNIFICANT WEATHER AND/OR OBSTRUCTIONS TO VISIBILITY. N/A MEANS
CURRENT SKY AND/OR WEATHER CONDITIONS ARE NOT AVAILABLE.

MNZ060>063-068>070-292100-
   Twin Cities Metro

CITY           SKY/WX    TMP DP  RH WIND       PRES   REMARKS
TWIN CITIES    MOSUNNY   82  54  37 W23G39    29.94F
ST PAUL        MOSUNNY   80  54  40 W23G38    29.94S
CRYSTAL        MOSUNNY   82  55  39 W25G37    29.93S
BLAINE         MOSUNNY   82  55  39 W17G29    29.93S
LAKEVILLE      SUNNY     79  54  41 W17G30    29.97S
EDEN PRAIRIE   SUNNY     81  54  39 W18G32    29.95F
SOUTH ST PAUL  SUNNY     81  51  35 W20G30    29.94F
LAKE ELMO      FAIR      79  55  44 W22G39    29.95F
$$
MNZ001>005-007-008-013>017-022>024-027-028-292100-
   Northwest Minnesota

CITY           SKY/WX    TMP DP  RH WIND       PRES   REMARKS
BEMIDJI        MOSUNNY   77  53  42 W24G37    29.80R
HALLOCK        SUNNY     79  50  36 NW24G37   29.76R
ROSEAU         MOSUNNY   75  59  57 W22G36    29.71R
WARROAD        MOSUNNY   72  61  68 W20G29    29.69R
THIEF RVR FALL CLOUDY   N/A N/A N/A W23G36    29.79R
CROOKSTON      SUNNY     79  54  41 NW29      29.82R
FOSSTON        MOSUNNY   75  55  50 W26G33    29.83R
DETROIT LAKES  SUNNY     77  52  41 W21G35    29.90S
MOORHEAD       MOSUNNY   79  54  41 W24G33    29.89S
PARK RAPIDS    MOSUNNY   79  54  41 W30G41    29.86R
MAHNOMEN       FAIR      75  54  47 W23G39    29.86R
$$
MNZ006-009>011-018-025>026-292100-
   North Central Minnesota

CITY           SKY/WX    TMP DP  RH WIND       PRES   REMARKS
BAUDETTE       CLOUDY    71  56  58 W17G33    29.69R
FLAG ISLAND    CLOUDY    70  57  64 W18G30    29.63R
INTL FALLS     LGT RAIN  65  58  78 W15G23    29.68R
WASKISH        CLOUDY    72  59  64 W24G37    29.74R
BIG FORK       MOSUNNY   72  55  56 SW14G24   29.75S
LONGVILLE      MOSUNNY   75  54  46 W17G33    29.82S
GRAND RAPIDS   CLOUDY    73  54  49 W14G23    29.79S
CRANE LAKE     CLOUDY    63  57  82 W6G21     29.71R
ORR            CLOUDY    63  57  82 W12G18    29.71R
COOK           CLOUDY    64  57  77 W10G22    29.75R
WALKER         MOCLDY    75  53  46 W28G36    29.81R
$$
MNZ012-019>021-037-292100-
   Northeast Minnesota

CITY           SKY/WX    TMP DP  RH WIND       PRES   REMARKS
DULUTH         PTSUNNY   73  56  54 W15G24    29.79S
ELY            CLOUDY    64  55  72 W21G30    29.73R
HIBBING        LGT RAIN  75  57  53 W9G25     29.77R
EVELETH        PTSUNNY   70  55  60 W15G26    29.78R
DULUTH HARBOR  CLOUDY    73  61  64 SW14      29.78S
TWO HARBORS    CLOUDY    73  61  64 W16       29.75R
SILVER BAY     CLOUDY    73  55  53 SW12G28   29.73S
GRAND MARAIS     N/A     56  50  80 W8G18     29.68R
G MARAIS ARPRT   N/A     64  54  68 SW7G21    29.71R
$$
MNZ029>031-032-039>041-046>048-054>057-064-292100-
   West Central Minnesota

CITY           SKY/WX    TMP DP  RH WIND       PRES   REMARKS
FERGUS FALLS   MOSUNNY   79  55  44 W25G35    29.91S
WHEATON        SUNNY     79  54  41 W23G32    29.96S
MORRIS         MOSUNNY   81  55  41 W18G35    29.96S
ALEXANDRIA     MOSUNNY   78  53  41 W26G41    29.96R
ELBOW LAKE     FAIR      78  54  43 W20G36    29.94S
WADENA         MOSUNNY   77  52  41 W21G37    29.89R
GLENWOOD       SUNNY     79  54  41 W26G33    29.96S
APPLETON       SUNNY     82  48  30 W22G33    29.98S
BENSON         SUNNY     81  50  34 NW21G35   29.97S
ORTONVILLE     SUNNY     81  48  32 W18G29    29.99S
MADISON        SUNNY     81  48  32 W21G33    30.01S
WILLMAR        FAIR      81  55  41 W21G30    29.99S
$$
MNZ033>034-036-042>043-049>051-058-059-292100-
   Central Minnesota

CITY           SKY/WX    TMP DP  RH WIND       PRES   REMARKS
ST CLOUD       MOSUNNY   81  52  36 W22G35    29.92S
SAUK CENTRE    FAIR      78  55  45 W21G36    29.94S
PAYNESVILLE    MOSUNNY   78  52  40 SW23G36   29.97R
AITKIN         MOSUNNY   79  54  41 SW13G26   29.83R
PINE RIVER     MOSUNNY   75  55  50 W20G37    29.88R
BRAINERD       PTSUNNY   75  53  46 W25G35    29.87R
STAPLES        MOSUNNY   79  54  41 W17G45    29.89R
LONG PRAIRIE   FAIR      77  52  41 W24G35    29.94R
LITTLE FALLS   MOSUNNY   77  50  38 W20G26    29.91R
LITCHFIELD     SUNNY     81  54  39 W22G32    29.97S
BUFFALO        MOSUNNY   80  53  39 W22G30    29.96S
MAPLE LAKE     MOSUNNY   81  57  44 W18G33    29.95S
$$
MNZ037-044-045-052-053-292100-
   East Central Minnesota

CITY           SKY/WX    TMP DP  RH WIND       PRES   REMARKS
PRINCETON      MOSUNNY   81  54  39 W20G35    29.91S
MORA           MOSUNNY   75  52  43 W20G33    29.89S
CAMBRIDGE      SUNNY     82  61  47 W14G24    29.89R
RUSH CITY      SUNNY     79  53  41 W21G29    29.89S
MOOSE LAKE     PTSUNNY   77  54  44 W18G24    29.82S
HINCKLEY       MOCLDY    77  57  50 W18G30    29.86S
CLOQUET        CLOUDY    73  54  49 SW8       29.81R
MCGREGOR       PTSUNNY   77  52  41 W15G29    29.84R
$$
MNZ071>073-080-081-089-090-097-098-292100-
   Southwest Minnesota

CITY           SKY/WX    TMP DP  RH WIND       PRES   REMARKS
MONTEVIDEO     SUNNY     82  54  36 NW21G30   30.02S
GRANITE FALLS  MOSUNNY   80  54  40 W18G31    30.03S
CANBY          SUNNY     82  49  32 W24G32    30.04S
MARSHALL       SUNNY     81  52  36 W28G33    30.05F
REDWOOD FALLS  MOSUNNY   82  51  34 W26G35    30.01S
OLIVIA         MOSUNNY   77  52  41 W24G36    29.99F
PIPESTONE      SUNNY     79  50  36 NW21G31   30.10F
WINDOM         SUNNY     81  54  39 W20G30    30.06F
WORTHINGTON    SUNNY     79  54  41 W21G26    30.10S
JACKSON        SUNNY     81  55  41 W24G31    30.09S
TRACY          SUNNY     81  55  41 W14G24    30.06F
SLAYTON        SUNNY     79  50  35 W18G30    30.09F
$$
MNZ065>067-074>077-082>085-091>093-292100-
   South Central Minnesota

CITY           SKY/WX    TMP DP  RH WIND       PRES   REMARKS
MANKATO        MOSUNNY   81  54  39 W21G31    30.01S
NEW ULM        SUNNY     81  54  39 W22G30    30.01F
ST JAMES       SUNNY     82  54  36 W25       30.04F
FAIRMONT       SUNNY     81  52  36 W22       30.06S
GLENCOE        SUNNY     80  57  45 W13G28    29.98S
FARIBAULT      SUNNY     79  54  41 W21G32    30.00S
OWATONNA       SUNNY     79  55  44 W21G31    30.01F
WASECA         SUNNY     77  55  47 W21       30.04S
ALBERT LEA     SUNNY     81  52  36 W18G26    30.04S
$$
MNZ078>079-086>088-094>096-292100-
   Southeast Minnesota

CITY           SKY/WX    TMP DP  RH WIND       PRES   REMARKS
ROCHESTER      SUNNY     78  55  44 W29G37    30.01F
RED WING       SUNNY     84  52  32 W17G29    29.94S
STANTON        SUNNY     80  56  42 W16G28    29.97S
DODGE CENTER   SUNNY     79  52  38 W25G33    30.02S
WINONA         SUNNY     81  50  34 W15G26    29.97S
AUSTIN         SUNNY     81  50  34 W21G28    30.03F
PRESTON        SUNNY     79  51  37 W25G39    30.03F
$$
ABBREVIATIONS USED IN REMARKS
   TC - TEMPERATURES IN CELSIUS
  WCI - WIND CHILL INDEX
   HX - HEAT INDEX
  VSB - VISIBILITY
$$


USA.gov is the U.S. government's official web portal to all federal, state and local government web resources and services.